Terminal Aerodrome Forecast
Issued by NWS Atlanta, GA

Home | Current Version | Previous Version | Text Only | Print | Product List | Glossary On
Versions: 1 2 3 4 5 6 7 8 9 10 11 12 13 14 15 16 17 18 19 20 21 22 23 24 25 26 27 28 29 30 31 32 33 34 35 36 37 38 39 40 41
000
FTUS42 KFFC 170500
TAFATL
TAF
KATL 170535Z 1706/1812 11009KT P6SM BKN250
     FM171200 08012KT P6SM SCT250
     FM171600 10014G24KT P6SM SCT040 BKN250
     FM180000 10010G16KT P6SM BKN035
     FM180500 06012KT P6SM BKN030=

USA.gov is the U.S. government's official web portal to all federal, state and local government web resources and services.